Tracking 21473 objects as of 18-Sep-2020
HD Live streaming from Space Station
objects crossing your sky now

COSMOS 660

Track COSMOS 660 now!
10-day predictions
COSMOS 660 is classified as:


NORAD ID: 7337
Int'l Code: 1974-044A
Perigee: 381.4 km
Apogee: 1,154.7 km
Inclination: 82.9 °
Period: 100.1 minutes
Semi major axis: 7139 km
RCS: 2.9855 m2 (large)
Launch date: June 18, 1974
Source: Commonwealth of Independent States (former USSR) (CIS)
Launch site: PLESETSK MISSILE AND SPACE COMPLEX (PKMTR)
aabbcc
Your satellite tracking list
Your tracking list is empty




NASA's NSSDC Master Catalog

Two Line Element Set (TLE):
1  7337U 74044A   20261.91681929 +.00000430 +00000-0 +20090-4 0  9997
2  7337 082.9451 236.9439 0541541 183.3281 176.4263 14.39268593337555
Source of the keplerian elements: AFSPC